Location: Recife
(8.0585°S, 34.8848°W)
Time: 20:51:07
(UTC-03:00)

A-11 Canister half - Pass Details

Date: 19 April 2026
Orbit: 1515 x 1684 km, 47.2° (Epoch: 16 May)

Event Time Altitude Azimuth Distance (km) Brightness Sun altitude
Rises 15:16:16 0° 281° (W) 4,920 12.9 27.8°
Reaches altitude 10° 15:20:37 10° 265° (W) 3,944 12.5 26.8°
Maximum altitude 15:27:34 20° 221° (SW) 3,187 11.2 25.1°
Drops below altitude 10° 15:34:33 10° 176° (S) 3,934 11.0 23.5°
Sets 15:38:57 0° 160° (SSE) 4,904 11.3 22.4°
